Regional Weather Roundup
Issued by NWS

Home | Current Version | Previous Version | Text Only | Print | Product List | Glossary Off
Versions: 1 2 3 4 5 6 7 8 9 10 11 12 13 14 15 16 17 18 19 20 21 22 23 24 25 26 27 28 29 30 31 32 33 34 35 36 37 38 39 40 41 42 43 44 45 46 47 48 49 50

000
ASUS44 KMEG 261810
RWRTN
TENNESSEE HOURLY STATE WEATHER ROUNDUP
NATIONAL WEATHER SERVICE MEMPHIS TN
100 PM CDT FRI MAY 26 2017

TNZ002-004-019-021-049-052-054-088>092-261900-
WEST TENNESSEE

CITY           SKY/WX    TMP DP  RH WIND       PRES   REMARKS
MEMPHIS INTL   MOSUNNY   83  63  50 SW23G32   29.90S
NWS MEMPHIS      N/A     83 N/A N/A MISG        N/A
JACKSON        SUNNY     84  57  39 S16G24    29.89F
DYERSBURG        N/A    N/A N/A N/A MISG        N/A
COVINGTON      SUNNY     82  59  44 SW18G28   29.87F
UNION CITY     SUNNY     84  55  37 S21G28    29.81F
BOLIVAR        SUNNY     82  57  42 S16G25    29.91F
PARIS          SUNNY     82  59  44 S21G29    29.85F
HUNTINGDON     SUNNY     84  57  39 S21G26    29.86F
LEXINGTON      SUNNY     82  61  47 MISG      29.91F
SELMER         SUNNY     82  57  42 SW15G21   29.93S
SAVANNAH       SUNNY     84  61  45 S13G21    29.94F
$$

TNZ008-025-027-028-033-062-065-066-261900-
NORTH MIDDLE TENNESSEE

CITY           SKY/WX    TMP DP  RH WIND       PRES   REMARKS
NASHVILLE      MOSUNNY   83  62  49 S13       29.94F
PORTLAND       SUNNY     77  64  65 S16       29.93F
CLARKSVILLE    SUNNY     81  58  45 S17G23    29.89F
SMYRNA         MOSUNNY   80  65  59 S9        29.95F
COOKEVILLE     MOSUNNY   77  61  57 VRB7G15   29.99F
GALLATIN       SUNNY     79  64  61 S8G17     29.96F
CROSSVILLE     CLOUDY    71  57  61 W10       30.06F
$$

TNZ061-075-076-078-094-096-097-261900-
SOUTH MIDDLE TENNESSEE

CITY           SKY/WX    TMP DP  RH WIND       PRES   REMARKS
FAYETTEVILLE   SUNNY     79  63  57 S8G15     30.00F
TULLAHOMA      SUNNY     79  63  57 S12       30.01F
WINCHESTER     SUNNY     79  63  57 SW8         N/A
MCMINNVILLE      N/A     79  63  57 S8        30.00F
COLUMBIA       SUNNY     81  63  54 S12G20    29.93F
SHELBYVILLE    SUNNY     79  66  65 S13G18    29.98F
$$

TNZ017-018-042-046-047-261900-
NORTHEAST TENNESSEE

CITY           SKY/WX    TMP DP  RH WIND       PRES   REMARKS
TRI CITIES     PTSUNNY   72  53  51 W13G23    30.03S
ELIZABETHTON   PTSUNNY   72  54  53 W13G18    30.03R
$$

TNZ012-013-036-069-073-074-261900-
CENTRAL EAST TENNESSEE

CITY           SKY/WX    TMP DP  RH WIND       PRES   REMARKS
KNOXVILLE      PTSUNNY   76  55  48 W14G20    30.04S
OAK RIDGE      MOSUNNY   77  55  46 VRB5      30.03F
DOWNTOWN KNOXV MOSUNNY   77  57  50 SW12      30.03F
GATLINBURG     SUNNY     75  52  43 W9        30.04R
MORRISTOWN     SUNNY     73  54  49 W9G17     30.04R
JACKSBORO      PTSUNNY   77  55  47 SW14      30.04F
$$

TNZ083-085-099-261900-
SOUTHEAST TENNESSEE

CITY           SKY/WX    TMP DP  RH WIND       PRES   REMARKS
CHATTANOOGA    PTSUNNY   80  58  46 VRB6      30.03F
$$

SKY/WX REPORTED AS FAIR MEANS FEW OR NO CLOUDS BELOW
12 THOUSAND FEET.




USA.gov is the U.S. government's official web portal to all federal, state and local government web resources and services.